Back to catalog

SL-8 DEB

AliveLEO
NORAD 15491·DEBRIS·🇷🇺 Russia

Launched Jan 17, 1985 from Plesetsk Cosmodrome

Loading…

Next Passes (next 24 hours)

TLE

FreshSource: Space-Track

Epoch: Sep 14, 2026, 01:26 UTC

1 15491U 85006D   26257.06030329  .00000878  00000-0  22585-3 0  9992
2 15491  74.0419 187.6010 0016024 237.6914 122.2696 14.51598570184225

Track SL-8 DEB in real time with AllMySat

Download on the App Store